• In Hungary
  • List of Countries
  • For 7 days
  • Water Temperature
  • Satellite Maps
  • Weather Map
  • News
  • Weather Widgets
  • user-avatar
    Login

    Hourly Weather Houston

    Today, 17 December, Sunday

    Time Temperature Precipitation Wind Pressure Humidity
    00:00 +10°C° 3.3 mm 5 mps 761 mmHg 90%
    01:00 +10°C° 0.3 mm 4 mps 761 mmHg 89%
    02:00 +10°C° 0.3 mm 3 mps 761 mmHg 89%
    03:00 +10°C° 0.3 mm 2 mps 761 mmHg 89%
    04:00 +11°C° 0 mm 1 mps 761 mmHg 90%
    05:00 +11°C° 0 mm 1 mps 762 mmHg 90%
    06:00 +11°C° 0 mm 1 mps 762 mmHg 91%
    07:00 +12°C° 0 mm 1 mps 762 mmHg 89%
    08:00 +13°C° 0 mm 1 mps 763 mmHg 87%
    09:00 +13°C° 0 mm 1 mps 763 mmHg 85%
    10:00 +15°C° 0 mm 1 mps 763 mmHg 80%
    11:00 +18°C° 0 mm 1 mps 763 mmHg 75%
    12:00 +20°C° 0 mm 1 mps 763 mmHg 69%
    13:00 +21°C° 0 mm 1 mps 762 mmHg 67%
    14:00 +22°C° 0 mm 1 mps 762 mmHg 65%
    15:00 +22°C° 0 mm 1 mps 762 mmHg 63%
    16:00 +21°C° 0 mm 1 mps 762 mmHg 67%
    17:00 +20°C° 0 mm 1 mps 762 mmHg 72%
    18:00 +19°C° 0 mm 1 mps 762 mmHg 77%
    19:00 +19°C° 0 mm 1 mps 762 mmHg 79%
    20:00 +19°C° 0 mm 1 mps 762 mmHg 82%
    21:00 +19°C° 0 mm 1 mps 763 mmHg 84%
    22:00 +19°C° 0 mm 1 mps 763 mmHg 86%
    23:00 +19°C° 0 mm 1 mps 763 mmHg 87%

    Tomorrow, 18 December, Monday

    Time Temperature Precipitation Wind Pressure Humidity
    00:00 +19°C° 0 mm 1 mps 763 mmHg 89%
    01:00 +19°C° 0.1 mm 1 mps 763 mmHg 90%
    02:00 +19°C° 0.1 mm 1 mps 763 mmHg 92%
    03:00 +19°C° 0.1 mm 1 mps 763 mmHg 94%
    04:00 +19°C° 0.5 mm 1 mps 762 mmHg 94%
    05:00 +19°C° 0.5 mm 1 mps 762 mmHg 95%
    06:00 +19°C° 0.5 mm 1 mps 762 mmHg 95%
    07:00 +20°C° 1.9 mm 1 mps 763 mmHg 96%
    08:00 +19°C° 1.9 mm 2 mps 763 mmHg 96%
    09:00 +19°C° 1.9 mm 2 mps 764 mmHg 96%
    10:00 +20°C° 1.5 mm 2 mps 764 mmHg 93%
    11:00 +21°C° 1.5 mm 2 mps 764 mmHg 90%
    12:00 +24°C° 1.5 mm 2 mps 764 mmHg 87%
    13:00 +24°C° 0.8 mm 2 mps 763 mmHg 86%
    14:00 +24°C° 0.8 mm 2 mps 763 mmHg 85%
    15:00 +25°C° 0.8 mm 2 mps 762 mmHg 84%
    16:00 +24°C° 0 mm 2 mps 762 mmHg 87%
    17:00 +24°C° 0 mm 2 mps 762 mmHg 90%
    18:00 +23°C° 0 mm 2 mps 762 mmHg 94%
    19:00 +23°C° 0.3 mm 2 mps 763 mmHg 95%
    20:00 +21°C° 0.3 mm 2 mps 763 mmHg 96%
    21:00 +21°C° 0.3 mm 2 mps 763 mmHg 97%
    22:00 +21°C° 0.9 mm 2 mps 763 mmHg 97%
    23:00 +21°C° 0.9 mm 2 mps 763 mmHg 97%

    Day after tomorrow, 19 December, Tuesday

    Time Temperature Precipitation Wind Pressure Humidity
    00:00 +21°C° 0.9 mm 2 mps 763 mmHg 97%
    01:00 +21°C° 1.3 mm 2 mps 763 mmHg 97%
    02:00 +21°C° 1.3 mm 2 mps 763 mmHg 97%
    03:00 +21°C° 1.3 mm 3 mps 762 mmHg 97%
    04:00 +21°C° 1.5 mm 3 mps 762 mmHg 97%
    05:00 +21°C° 1.5 mm 3 mps 762 mmHg 97%
    06:00 +21°C° 1.5 mm 3 mps 762 mmHg 97%
    07:00 +22°C° 0.3 mm 4 mps 762 mmHg 96%
    08:00 +22°C° 0.3 mm 4 mps 762 mmHg 94%
    09:00 +23°C° 0.3 mm 5 mps 763 mmHg 93%
    10:00 +25°C° 0.4 mm 5 mps 762 mmHg 88%
    11:00 +26°C° 0.4 mm 6 mps 762 mmHg 82%
    12:00 +27°C° 0.4 mm 6 mps 762 mmHg 77%
    13:00 +27°C° 1.7 mm 6 mps 761 mmHg 78%
    14:00 +27°C° 1.7 mm 6 mps 760 mmHg 78%
    15:00 +26°C° 1.7 mm 6 mps 760 mmHg 79%
    16:00 +26°C° 1 mm 6 mps 760 mmHg 82%
    17:00 +25°C° 1 mm 5 mps 760 mmHg 85%
    18:00 +23°C° 1 mm 5 mps 760 mmHg 89%
    19:00 +23°C° 1.4 mm 5 mps 760 mmHg 89%
    20:00 +23°C° 1.4 mm 5 mps 761 mmHg 89%
    21:00 +22°C° 1.4 mm 5 mps 761 mmHg 89%
    22:00 +21°C° 0 mm 4 mps 761 mmHg 90%
    23:00 +20°C° 0 mm 4 mps 762 mmHg 90%

    20 December, Wednesday

    Time Temperature Precipitation Wind Pressure Humidity
    00:00 +19°C° 0 mm 4 mps 762 mmHg 91%
    01:00 +19°C° 0 mm 4 mps 762 mmHg 90%
    02:00 +18°C° 0 mm 3 mps 762 mmHg 90%
    03:00 +17°C° 0 mm 3 mps 762 mmHg 90%
    04:00 +17°C° 0 mm 2 mps 762 mmHg 89%
    05:00 +17°C° 0 mm 2 mps 762 mmHg 88%
    06:00 +16°C° 0 mm 2 mps 762 mmHg 87%
    07:00 +17°C° 0 mm 2 mps 763 mmHg 84%
    08:00 +17°C° 0 mm 2 mps 763 mmHg 81%
    09:00 +18°C° 0 mm 2 mps 763 mmHg 78%
    10:00 +19°C° 0 mm 2 mps 763 mmHg 72%
    11:00 +20°C° 0 mm 2 mps 763 mmHg 65%
    12:00 +23°C° 0 mm 2 mps 763 mmHg 59%
    13:00 +23°C° 0 mm 2 mps 762 mmHg 56%
    14:00 +24°C° 0 mm 2 mps 761 mmHg 52%
    15:00 +24°C° 0 mm 2 mps 761 mmHg 49%
    16:00 +23°C° 0 mm 1 mps 761 mmHg 53%
    17:00 +22°C° 0 mm 1 mps 761 mmHg 58%
    18:00 +21°C° 0 mm 1 mps 761 mmHg 62%
    19:00 +18°C° 0 mm 0 mps 761 mmHg 64%
    20:00 +17°C° 0 mm 0 mps 761 mmHg 66%
    21:00 +17°C° 0 mm 0 mps 761 mmHg 68%
    22:00 +19°C° 0 mm 1 mps 761 mmHg 70%
    23:00 +18°C° 0 mm 1 mps 761 mmHg 72%

    21 December, Thursday

    Time Temperature Precipitation Wind Pressure Humidity
    00:00 +18°C° 0 mm 1 mps 761 mmHg 74%
    01:00 +16°C° 0 mm 1 mps 760 mmHg 76%
    02:00 +16°C° 0 mm 1 mps 760 mmHg 77%
    03:00 +16°C° 0 mm 1 mps 760 mmHg 79%
    04:00 +16°C° 0 mm 1 mps 760 mmHg 79%
    05:00 +16°C° 0 mm 1 mps 760 mmHg 79%
    06:00 +16°C° 0 mm 1 mps 760 mmHg 79%
    07:00 +16°C° 0 mm 2 mps 760 mmHg 76%
    08:00 +17°C° 0 mm 2 mps 760 mmHg 74%
    09:00 +18°C° 0 mm 2 mps 761 mmHg 71%
    10:00 +20°C° 0 mm 3 mps 760 mmHg 66%
    11:00 +22°C° 0 mm 3 mps 760 mmHg 60%
    12:00 +23°C° 0 mm 4 mps 760 mmHg 55%
    13:00 +23°C° 0 mm 4 mps 759 mmHg 57%
    14:00 +25°C° 0 mm 4 mps 758 mmHg 59%
    15:00 +25°C° 0 mm 5 mps 758 mmHg 61%
    16:00 +23°C° 0 mm 4 mps 758 mmHg 68%
    17:00 +22°C° 0 mm 4 mps 758 mmHg 75%
    18:00 +21°C° 0 mm 4 mps 758 mmHg 83%
    19:00 +21°C° 0 mm 4 mps 758 mmHg 86%
    20:00 +21°C° 0 mm 4 mps 758 mmHg 89%
    21:00 +21°C° 0 mm 4 mps 758 mmHg 92%
    22:00 +21°C° 0.1 mm 4 mps 758 mmHg 93%
    23:00 +21°C° 0.1 mm 4 mps 758 mmHg 94%

    22 December, Friday

    Time Temperature Precipitation Wind Pressure Humidity
    00:00 +22°C° 0.1 mm 4 mps 758 mmHg 95%
    01:00 +22°C° 0.2 mm 4 mps 758 mmHg 95%
    02:00 +22°C° 0.2 mm 4 mps 757 mmHg 96%
    03:00 +22°C° 0.2 mm 3 mps 757 mmHg 96%
    04:00 +22°C° 0.1 mm 3 mps 757 mmHg 96%
    05:00 +22°C° 0.1 mm 3 mps 757 mmHg 96%
    06:00 +22°C° 0.1 mm 3 mps 757 mmHg 96%
    07:00 +23°C° 0.1 mm 4 mps 758 mmHg 94%
    08:00 +23°C° 0.1 mm 4 mps 758 mmHg 91%
    09:00 +23°C° 0.1 mm 5 mps 758 mmHg 89%
    10:00 +25°C° 0.4 mm 4 mps 758 mmHg 89%
    11:00 +25°C° 0.4 mm 4 mps 758 mmHg 88%
    12:00 +25°C° 0.4 mm 4 mps 758 mmHg 88%
    13:00 +23°C° 2.3 mm 5 mps 758 mmHg 87%
    14:00 +23°C° 2.3 mm 6 mps 758 mmHg 86%
    15:00 +22°C° 2.3 mm 6 mps 758 mmHg 85%
    16:00 +19°C° 2.5 mm 6 mps 759 mmHg 84%
    17:00 +15°C° 2.5 mm 7 mps 760 mmHg 82%
    18:00 +12°C° 2.5 mm 7 mps 760 mmHg 81%
    19:00 +11°C° 0.3 mm 7 mps 761 mmHg 76%
    20:00 +11°C° 0.3 mm 7 mps 762 mmHg 71%
    21:00 +10°C° 0.3 mm 6 mps 763 mmHg 66%
    22:00 +10°C° 0 mm 6 mps 763 mmHg 65%
    23:00 +9°C° 0 mm 6 mps 764 mmHg 63%
    Show more